Regional Weather Roundup
Issued by NWS Lake Charles, LA

Current Version | Previous Version | Text Only | Print | Product List | Glossary On
Versions: 1 2 3 4 5 6 7 8 9 10 11 12 13 14 15 16 17 18 19 20 21 22 23 24 25 26 27
000
ASUS44 KLCH 251710
RWRLCH
REGIONAL WEATHER ROUNDUP
NATIONAL WEATHER SERVICE LAKE CHARLES LA
1200 PM CDT SUN JUN 25 2017

Note: "fair" indicates few or no clouds below 12,000 feet with no
significant weather and/or obstructions to visibility.


ACROSS SOUTHEAST TEXAS

CITY           SKY/WX    TMP DP  RH WIND       PRES   REMARKS
BEAUMONT       CLOUDY    81  75  82 E5        30.15S THUNDER
BEAUMONT CITY  CLOUDY   N/A N/A N/A MISG      30.16F
ORANGE         CLOUDY    85  76  75 E8        30.17S
JASPER           N/A     79  73  81 N7        30.22R
$$

ACROSS CENTRAL LOUISIANA

CITY           SKY/WX    TMP DP  RH WIND       PRES   REMARKS
LEESVILLE      CLOUDY    79  71  77 NE6       30.19F
FULLERTON      FAIR      81  71  71 VRB3      30.17F
ALEXANDRIA INT CLOUDY    79  69  71 NE10      30.19F
ESLER FIELD    CLOUDY    78  69  73 NE7       30.21S
DERIDDER       FAIR      81  75  82 E7        30.20S
OAKDALE        PTSUNNY   83  73  71 N6        30.18S
OPELOUSAS      CLOUDY    83  74  76 NE7       30.17S
$$

ACROSS SOUTHWEST AND SOUTH CENTRAL LOUISIANA

CITY           SKY/WX    TMP DP  RH WIND       PRES   REMARKS
SULPHUR        CLOUDY    86  75  71 E3        30.17S
LAKE CHARLES   PTSUNNY   84  78  82 NE6       30.16F
CHENNAULT INT  PTSUNNY   84  75  74 NE7       30.16F
CAMERON PHI    SUNNY     84  77  79 NE9G16    30.14F
DEQUINCY       PTSUNNY   83  73  73 NE3       30.17F
JENNINGS       FAIR     N/A N/A N/A N8        30.15F
LAFAYETTE      MOSUNNY   86  77  74 NE8       30.15F
NEW IBERIA     PTSUNNY   84  74  71 NE7       30.16F
ABBEVILLE      PTSUNNY   82  81  94 N3        30.16F
PATTERSON      PTSUNNY   85  77  77 N9        30.15S
SALT POINT       N/A     86  75  69 CALM      30.12F
$$

SELECTED SITES ACROSS THE REGION

CITY           SKY/WX    TMP DP  RH WIND       PRES   REMARKS
HOUSTON BUSH   CLOUDY    83  74  74 NE10      30.16F
HOUSTON HOBBY  CLOUDY    86  75  69 E9        30.15S
GALVESTON      CLOUDY    81  78  91 NE3       30.14F FOG
COLLEGE STAT   CLOUDY    81  74  79 E8        30.16F
CONROE         CLOUDY    81  72  74 NE9       30.18S
HUNTSVILLE     CLOUDY    79  71  76 E5        30.18F
LUFKIN         CLOUDY    77  68  73 NE9       30.21S
SHREVEPORT     CLOUDY    76  63  64 E8        30.24S
MONROE         LGT RAIN  71  67  87 N5        30.26R
NATCHEZ MS     PTSUNNY   81  68  64 E10       30.22S
BATON ROUGE    MOSUNNY   86  72  62 NE7       30.16S
N.O. INTL ARPT PTSUNNY   85  75  72 NE9       30.14F
SLIDELL        MOSUNNY   86  73  65 N13       30.14S
$$

MARINE REPORTS

STATION/POSITION TIME  SKY/WX   TEMP    WIND        PRES    VSBY
                                AIR SEA DIR/SP/G
                 (UTC)          (F)     (DEG/KT/KT) (MB)    (MI)
BUOY 30 S HIGH I 1650            83 85   90/  6/  8 1020.4F
WVE H/P(F/S)=  2/ 7

SEA RIM ST PARK  1700            82     120/  9/ 10 1021.1F
PORT ARTHUR      1648            81 84   70/  5/  9 1021.2F
SABINE PASS N    1648            83 86  110/  9/ 12 1022.4F
TEXAS POINT      NOT AVBL
CALCASIEU PASS   1648            83 85   50/  7/ 12   N/A
LK CHARLES BEACH 1648            83 81              1021.8F
MARSH ISLAND     1600            82                   N/A
FRESH WATER LOCK 1648            85 88   10/  5/  8 1020.5F
AMERADA PASS     1648            83 83   CALM  /  3 1020.3F
$$




USA.gov is the U.S. government's official web portal to all federal, state and local government web resources and services.